• Join FlightAware (Why Join?)
  • Login
  • US Flag GB Flag 
03:52 EDT


 

Airport Tracker/Info


-or-


 

Live Flight TrackerFlight Track Log ✈ DAL268 ✈ 09-Jul-2013 ✈ KJFK - LLBG / TLV

Flight Track Log - Related Links

Times and Time Zones

All times are in EDT time to prevent confusion due to time zone crossing. See the DAL268 flight status page for this flight to view local times or setup timezone preferences in your user account.

Time Position Orientation Groundspeed Altitude Reporting Facility
EDT Latitude Longitude Course Direction KTS MPH feet Rate Location/Type
00:01 40.6370 -73.7800 261° West  Level FlightAware
00:06 40.6370 -73.7790 90° East 2 2  Level FlightAware
00:07 40.6380 -73.7790 360° North 2 2  Level FlightAware
00:09 40.5494 -73.5148 114° Southeast  Level FlightAware Approximate
00:10 40.5000 -73.3671 90° East  Level FlightAware Approximate
00:11 40.4567 -73.2168 105° East  Level FlightAware Approximate
00:12 40.4020 -73.0714 119° Southeast  Level FlightAware Approximate
00:12 40.6370 -73.7790 72° East 12 14  Level FlightAware
00:13 40.3959 -72.9164 72° East  Level FlightAware Approximate
00:13 40.6360 -73.7780 143° Southeast 21 24  Level FlightAware
00:14 40.6350 -73.7770 143° Southeast 14 16  Level FlightAware
00:16 40.6410 -73.7720 32° Northeast 16 18  Level FlightAware
00:17 40.6430 -73.7710 21° North 15 17  Level FlightAware
00:17 40.6450 -73.7700 21° North 30 35  Level FlightAware
00:18 40.6460 -73.7700 360° North 27 31  Level FlightAware
00:19 40.6490 -73.7700 360° North 27 31  Level FlightAware
00:20 40.6500 -73.7680 57° Northeast 29 33  Level FlightAware
00:20 40.6500 -73.7670 90° East 24 28  Level FlightAware
00:21 40.6480 -73.7650 143° Southeast 19 22  Level FlightAware
00:22 40.6340 -73.7760 211° Southwest 145 167 60 Level FlightAware
00:22 40.6240 -73.7840 211° Southwest 178 205 100 1,200 Climbing FlightAware
00:23 40.6040 -73.7990 210° Southwest 177 204 900 1,740 Climbing FlightAware
00:23 40.5890 -73.8100 209° Southwest 184 212 1,500 1,140 Climbing FlightAware
00:23 40.5750 -73.8170 201° Southwest 210 242 1,600 780 Climbing FlightAware
00:24 40.5460 -73.8100 170° South 246 283 2,100 1,020 Climbing FlightAware
00:24 40.5350 -73.7990 143° Southeast 262 302 2,300 1,440 Climbing FlightAware
00:24 40.5210 -73.7780 131° Southeast 279 321 2,800 1,800 Climbing FlightAware
00:25 40.5090 -73.7410 113° Southeast 299 344 3,500 2,100 Climbing FlightAware
00:25 40.5072 -73.7116 95° East 305 351 4,200 2,700 Climbing FlightAware ADS-B
00:25 40.5089 -73.6969 81° East 305 351 4,600 2,100 Climbing FlightAware ADS-B
00:25 40.5117 -73.6806 77° East 308 354 4,800 960 Climbing FlightAware ADS-B
00:26 40.5173 -73.6534 75° East 310 357 5,000 1,200 Climbing FlightAware ADS-B
00:26 40.5227 -73.6257 76° East 316 364 5,400 2,580 Climbing FlightAware ADS-B
00:26 40.5281 -73.5982 76° East 309 356 6,300 3,360 Climbing FlightAware ADS-B
00:26 40.5338 -73.5692 75° East 310 357 7,100 2,460 Climbing FlightAware ADS-B
00:27 40.5397 -73.5413 74° East 319 367 7,600 2,280 Climbing FlightAware ADS-B
00:27 40.5457 -73.5112 75° East 320 368 8,300 2,700 Climbing FlightAware ADS-B
00:27 40.5517 -73.4830 74° East 323 372 9,000 2,400 Climbing FlightAware ADS-B
00:27 40.5577 -73.4523 76° East 328 377 9,600 2,160 Climbing FlightAware ADS-B
00:28 40.5603 -73.4347 79° East 329 379 9,900 2,340 Climbing FlightAware ADS-B
00:28 40.5616 -73.4067 86° East 330 380 10,500 2,100 Climbing FlightAware ADS-B
00:28 40.5604 -73.3946 97° East 333 383 10,600 1,620 Climbing FlightAware ADS-B
00:28 40.5587 -73.3846 103° East 334 384 10,800 1,800 Climbing FlightAware ADS-B
00:28 40.5545 -73.3692 110° East 337 388 11,000 1,500 Climbing FlightAware ADS-B
00:28 40.5517 -73.3617 116° Southeast 339 390 11,100 1,320 Climbing FlightAware ADS-B
00:28 40.5477 -73.3525 120° Southeast 343 395 11,200 1,260 Climbing FlightAware ADS-B
00:29 40.5319 -73.3202 123° Southeast 359 413 11,600 1,320 Climbing FlightAware ADS-B
00:29 40.5049 -73.2567 119° Southeast 375 432 12,300 1,200 Climbing FlightAware ADS-B
00:30 40.4761 -73.1888 119° Southeast 411 473 12,900 1,260 Climbing FlightAware ADS-B
00:30 40.4660 -73.1669 121° Southeast 417 480 13,200 1,800 Climbing FlightAware ADS-B
00:30 40.4592 -73.1460 113° Southeast 421 484 13,500 1,860 Climbing FlightAware ADS-B
00:30 40.4537 -73.1213 106° East 425 489 13,800 1,860 Climbing FlightAware ADS-B
00:30 40.4516 -73.1061 100° East 426 490 14,000 2,640 Climbing FlightAware ADS-B
00:30 40.4509 -73.0958 95° East 426 490 14,200 1,920 Climbing FlightAware ADS-B
00:31 40.4605 -72.9945 83° East 434 499 15,400 1,920 Climbing FlightAware ADS-B
00:32 40.4830 -72.8830 75° East 446 513 16,900 2,100 Climbing FlightAware
00:32 40.4950 -72.8251 75° East 450 518 17,700 1,860 Climbing FlightAware ADS-B
00:33 40.5189 -72.7071 75° East 459 528 19,000 1,620 Climbing FlightAware ADS-B
00:33 40.5421 -72.5892 75° East 468 539 20,100 1,620 Climbing FlightAware ADS-B
00:34 40.5610 -72.4911 76° East 478 550 21,100 1,620 Climbing FlightAware ADS-B
00:35 40.5788 -72.4063 75° East 484 557 21,900 1,560 Climbing FlightAware ADS-B
00:35 40.5980 -72.3121 75° East 488 562 22,800 1,620 Climbing FlightAware ADS-B
00:36 40.6166 -72.2171 76° East 491 565 23,700 1,500 Climbing FlightAware ADS-B
00:36 40.6420 -72.0860 76° East 497 572 24,800 1,260 Climbing FlightAware
00:37 40.6530 -72.0298 76° East 492 566 25,100 1,140 Climbing FlightAware ADS-B
00:37 40.6772 -71.9046 76° East 504 580 26,000 840 Climbing FlightAware ADS-B
00:39 40.7120 -71.7280 75° East 512 589 26,600 300 Climbing FlightAware
00:39 40.7310 -71.6330 75° East 512 589 26,600 1,860 Level FlightAware
00:40 40.7620 -71.4650 76° East 517 595 29,100 1,980 Climbing FlightAware
00:40 40.7910 -71.3690 68° East 515 593 29,300 1,200 Climbing FlightAware
00:41 40.8660 -71.2080 58° Northeast 506 582 31,000 960 Climbing FlightAware
00:42 40.9190 -71.0900 59° Northeast 511 588 31,000  Level FlightAware
00:43 40.9670 -70.9830 59° Northeast 509 586 31,000  Level FlightAware
00:44 41.0220 -70.8630 59° Northeast 509 586 31,000  Level FlightAware
00:45 41.0860 -70.7200 59° Northeast 509 586 31,000  Level FlightAware
00:46 41.1570 -70.5590 60° Northeast 510 587 31,000  Level FlightAware
00:46 41.1970 -70.4730 58° Northeast 510 587 31,000  Level FlightAware
00:47 41.2440 -70.3670 59° Northeast 510 587 31,000  Level FlightAware
00:48 41.2810 -70.2850 59° Northeast 510 587 31,000  Level FlightAware
00:48 41.3180 -70.2030 59° Northeast 510 587 31,000  Level FlightAware
00:49 41.3680 -70.0930 59° Northeast 510 587 31,000  Level FlightAware
00:50 41.4060 -70.0080 59° Northeast 510 587 31,000  Level FlightAware
00:50 41.4410 -69.9300 59° Northeast 510 587 31,000  Level FlightAware
00:51 41.5350 -69.6970 62° Northeast 31,000  Level FlightAware
00:52 41.5830 -69.5800 61° Northeast 507 583 31,000  Level FlightAware
00:52 41.6310 -69.4660 61° Northeast 507 583 31,000  Level FlightAware
00:53 41.6660 -69.3800 61° Northeast 507 583 31,000  Level FlightAware
00:54 41.7010 -69.2960 61° Northeast 507 583 31,000  Level FlightAware
00:54 41.7470 -69.1840 61° Northeast 507 583 31,000  Level FlightAware
00:55 41.7830 -69.0970 61° Northeast 507 583 31,000  Level FlightAware
00:56 41.8300 -68.9850 61° Northeast 507 583 31,000  Level FlightAware
00:57 41.9310 -68.7520 60° Northeast 508 585 31,000  Level FlightAware
00:57 41.9810 -68.6300 61° Northeast 509 586 31,000  Level FlightAware
00:58 42.0370 -68.4950 61° Northeast 510 587 31,000  Level FlightAware
00:59 42.0760 -68.4010 61° Northeast 510 587 31,000  Level FlightAware
01:00 42.1470 -68.2240 62° Northeast 510 587 31,000  Level FlightAware
01:00 42.1820 -68.1390 61° Northeast 510 587 31,000  Level FlightAware
01:01 42.2290 -68.0250 61° Northeast 510 587 31,000  Level FlightAware
01:02 42.2860 -67.8810 62° Northeast 509 586 31,000  Level FlightAware
01:03 42.3450 -67.7370 61° Northeast 509 586 31,000  Level FlightAware
01:03 42.3780 -67.6560 61° Northeast 509 586 31,000  Level FlightAware
01:04 42.4480 -67.4720 63° Northeast 31,000  Level FlightAware
01:05 42.4931 -67.3622 63° Northeast 503 579 31,000 300 Level Boston Center
01:11 42.8560 -66.3840 63° Northeast 497 572 33,100 360 Climbing FlightAware
01:11 42.8960 -66.2730 64° Northeast 498 573 33,600 480 Climbing FlightAware
01:12 42.9620 -66.0880 64° Northeast 499 574 34,000 180 Climbing FlightAware
01:13 43.0030 -65.9710 64° Northeast 498 573 34,000  Level FlightAware
01:14 43.0430 -65.8590 64° Northeast 496 571 34,000  Level FlightAware
01:14 43.0830 -65.7430 65° Northeast 497 572 34,000  Level FlightAware
01:15 43.1220 -65.6320 64° Northeast 497 572 34,000  Level FlightAware
01:16 43.1620 -65.5160 65° Northeast 496 571 34,000  Level FlightAware
01:16 43.2000 -65.4050 65° Northeast 496 571 34,000  Level FlightAware
01:17 43.2450 -65.2750 65° Northeast 495 570 34,000  Level FlightAware
01:18 43.2800 -65.1720 65° Northeast 495 570 34,000  Level FlightAware
01:18 43.3240 -65.0440 65° Northeast 495 570 34,000  Level FlightAware
01:19 43.3590 -64.9420 65° Northeast 495 570 34,000  Level FlightAware
01:20 43.3970 -64.8310 65° Northeast 495 570 34,000  Level FlightAware
01:20 43.4410 -64.6990 65° Northeast 491 565 34,000  Level FlightAware
01:21 43.4830 -64.5740 65° Northeast 495 570 34,000  Level FlightAware
01:22 43.5190 -64.4650 65° Northeast 495 570 34,000  Level FlightAware
01:23 43.5530 -64.3630 65° Northeast 495 570 34,000  Level FlightAware
01:23 43.5960 -64.2350 65° Northeast 496 571 34,000  Level FlightAware
01:24 43.6350 -64.1170 65° Northeast 496 571 34,000  Level FlightAware
01:25 43.6860 -63.9580 66° East 499 574 34,000  Level FlightAware
01:25 43.7240 -63.8440 65° Northeast 503 579 34,000  Level FlightAware
01:26 43.7760 -63.6830 66° East 506 582 34,000  Level FlightAware
01:27 43.8110 -63.5760 66° East 510 587 34,000  Level FlightAware
01:28 43.8540 -63.4410 66° East 514 592 34,000  Level FlightAware
01:29 43.9080 -63.2720 66° East 519 597 34,000  Level FlightAware
01:29 43.9460 -63.1530 66° East 523 602 34,000  Level FlightAware
01:30 43.9860 -63.0290 66° East 527 606 34,000  Level FlightAware
01:31 44.0250 -62.9020 67° East 529 609 34,000  Level FlightAware
01:31 44.0670 -62.7680 66° East 531 611 34,000  Level FlightAware
01:32 44.1090 -62.6330 67° East 532 612 34,000  Level FlightAware
01:33 44.1550 -62.4850 67° East 532 612 34,000  Level FlightAware
01:34 44.1950 -62.3530 67° East 532 612 34,000  Level FlightAware
01:35 44.2333 -62.1500 67° East 530 610 34,000  Level Gander Center
01:36 44.3000 -61.9500 65° Northeast 540 621 34,000  Level Gander Center
01:37 44.3667 -61.7667 63° Northeast 540 621 34,000  Level Gander Center
01:43 44.7290 -60.5590 63° Northeast 554 638 34,000  Level FlightAware
01:43 44.7710 -60.4090 68° East 553 636 34,000  Level FlightAware
01:44 44.8120 -60.2650 68° East 552 635 34,000  Level FlightAware
01:45 44.8760 -60.0410 68° East 551 634 34,000  Level FlightAware
01:46 44.9310 -59.8410 69° East 552 635 34,000  Level FlightAware
01:47 44.9700 -59.7000 69° East 554 638 34,000  Level FlightAware
01:48 45.0100 -59.5550 69° East 556 640 34,000  Level FlightAware
01:48 45.0480 -59.4160 69° East 558 642 34,000  Level FlightAware
01:49 45.0850 -59.2800 69° East 558 642 34,000  Level FlightAware
01:50 45.1260 -59.1300 69° East 557 641 34,000  Level FlightAware
01:50 45.1630 -58.9940 69° East 559 643 34,000  Level FlightAware
01:51 45.1970 -58.8640 70° East 558 642 34,000  Level FlightAware
01:52 45.2340 -58.7270 69° East 559 643 34,000  Level FlightAware
01:52 45.2740 -58.5750 69° East 560 644 34,000  Level FlightAware
01:53 45.3070 -58.4510 69° East 561 646 34,000  Level FlightAware
01:54 45.3430 -58.3130 70° East 561 646 34,000  Level FlightAware
01:54 45.3810 -58.1640 70° East 562 647 34,000  Level FlightAware
01:55 45.4120 -58.0460 69° East 563 648 34,000  Level FlightAware
01:56 45.4490 -57.9040 70° East 564 649 34,000  Level FlightAware
01:57 45.5080 -57.6690 70° East 564 649 34,000  Level FlightAware
01:57 45.5360 -57.5620 69° East 564 649 34,000  Level FlightAware
01:58 45.5720 -57.4200 70° East 564 649 34,000  Level FlightAware
01:59 45.5990 -57.3120 70° East 564 649 34,000  Level FlightAware
02:00 45.6600 -57.0740 70° East 564 649 34,000  Level FlightAware
02:01 45.7160 -56.8200 72° East 569 655 34,000  Level FlightAware
02:02 45.7450 -56.6890 72° East 570 656 34,000  Level FlightAware
02:02 45.7890 -56.4880 73° East 572 658 34,000  Level FlightAware
02:03 45.8210 -56.3400 73° East 572 658 34,000  Level FlightAware
02:04 45.8500 -56.2060 73° East 573 659 34,000  Level FlightAware
02:04 45.8870 -56.0350 73° East 574 661 34,000  Level FlightAware
02:05 45.9230 -55.8710 72° East 574 661 34,000  Level FlightAware
02:06 45.9570 -55.7070 73° East 574 661 34,000  Level FlightAware
02:07 45.9860 -55.5720 73° East 575 662 34,000  Level FlightAware
02:07 46.0180 -55.4190 73° East 574 661 34,000  Level FlightAware
02:08 46.0630 -55.1990 74° East 574 661 34,000  Level FlightAware
02:09 46.0940 -55.0490 73° East 574 661 34,000  Level FlightAware
02:10 46.1330 -54.8580 74° East 576 663 34,000  Level FlightAware
02:10 46.1610 -54.7180 74° East 575 662 34,000  Level FlightAware
02:11 46.1950 -54.5490 74° East 575 662 34,000  Level FlightAware
02:12 46.2250 -54.4020 74° East 574 661 34,000  Level FlightAware
02:12 46.2510 -54.2690 74° East 574 661 34,000  Level FlightAware
02:13 46.2800 -54.1210 74° East 574 661 34,000  Level FlightAware
02:14 46.3080 -53.9740 75° East 575 662 34,000  Level FlightAware
02:15 46.3700 -53.6510 74° East 575 662 34,000  Level FlightAware
02:16 46.4060 -53.4620 74° East 576 663 34,000  Level FlightAware
02:17 46.4350 -53.3100 74° East 576 663 34,000  Level FlightAware
02:18 46.4640 -53.1530 75° East 575 662 34,000  Level FlightAware
02:18 46.4930 -52.9970 75° East 576 663 34,000  Level FlightAware
02:19 46.5240 -52.8250 75° East 576 663 34,000  Level FlightAware
02:20 46.5540 -52.6640 75° East 577 664 34,000  Level FlightAware
02:20 46.5850 -52.4920 75° East 577 664 34,000  Level FlightAware
02:21 46.6070 -52.3650 76° East 577 664 34,000  Level FlightAware
02:22 46.6370 -52.1960 75° East 576 663 34,000  Level FlightAware
02:22 46.6620 -52.0540 76° East 576 663 34,000  Level FlightAware
02:23 46.6910 -51.8890 76° East 575 662 34,000  Level FlightAware
02:24 46.7260 -51.6860 76° East 575 662 34,000  Level FlightAware
02:25 46.7510 -51.5390 76° East 575 662 34,000  Level FlightAware
02:25 46.7780 -51.3740 77° East 575 662 34,000  Level FlightAware
02:26 46.7980 -51.2580 76° East 575 662 34,000  Level FlightAware
02:27 46.8260 -51.0880 76° East 574 661 34,000  Level FlightAware
02:27 46.8490 -50.9490 76° East 574 661 34,000  Level FlightAware
02:28 46.8780 -50.7760 76° East 574 661 34,000  Level FlightAware
02:29 46.8980 -50.6610 76° East 574 661 34,000  Level FlightAware
02:31 46.9560 -50.3210 76° East 574 661 34,000  Level FlightAware
02:31 46.9760 -50.2020 76° East 574 661 34,000  Level FlightAware
02:32 47.0030 -50.0450 76° East 574 661 34,000  Level FlightAware
02:33 47.0220 -49.9290 76° East 574 661 34,000  Level FlightAware
02:33 47.0490 -49.7720 76° East 574 661 34,000  Level FlightAware
02:34 47.0690 -49.6530 76° East 574 661 34,000  Level FlightAware
02:35 47.1010 -49.4630 76° East 574 661 34,000  Level FlightAware
02:36 47.1210 -49.3470 76° East 574 661 34,000  Level FlightAware
02:36 47.1410 -49.2310 76° East 574 661 34,000  Level FlightAware
02:37 47.1670 -49.0770 76° East 574 661 34,000  Level FlightAware
02:38 47.1870 -48.9610 76° East 574 661 34,000  Level FlightAware
02:39 47.2000 -48.3333 76° East 570 656 34,000  Level Gander Center
02:40 47.2333 -48.1000 78° East 570 656 34,000  Level Gander Center
02:41 47.2500 -47.9000 83° East 570 656 34,000  Level Gander Center
02:42 47.3000 -47.6500 73° East 560 644 34,000  Level Gander Center
02:44 47.3333 -47.2000 84° East 560 644 34,000  Level Gander Center
02:46 47.3845 -46.7852 80° East  Level FlightAware Approximate
02:53 47.5533 -45.3150 80° East  Level FlightAware Approximate
02:54 47.5758 -45.1043 81° East  Level FlightAware Approximate
02:55 47.5980 -44.8933 81° East  Level FlightAware Approximate
02:56 47.6198 -44.6822 81° East  Level FlightAware Approximate
02:57 47.6412 -44.4708 81° East  Level FlightAware Approximate
02:58 47.6622 -44.2594 82° East  Level FlightAware Approximate
02:59 47.6828 -44.0477 82° East  Level FlightAware Approximate
03:00 47.7031 -43.8359 82° East  Level FlightAware Approximate
03:01 47.7229 -43.6239 82° East  Level FlightAware Approximate
03:02 47.7424 -43.4118 82° East  Level FlightAware Approximate
03:03 47.7614 -43.1995 82° East  Level FlightAware Approximate
03:04 47.7801 -42.9870 82° East  Level FlightAware Approximate
03:05 47.7984 -42.7744 83° East  Level FlightAware Approximate
03:06 47.8163 -42.5617 83° East  Level FlightAware Approximate
03:07 47.8338 -42.3488 83° East  Level FlightAware Approximate
03:08 47.8509 -42.1357 83° East  Level FlightAware Approximate
03:09 47.8676 -41.9226 83° East  Level FlightAware Approximate
03:10 47.8839 -41.7092 83° East  Level FlightAware Approximate
03:11 47.8998 -41.4958 84° East  Level FlightAware Approximate
03:12 47.9153 -41.2822 84° East  Level FlightAware Approximate
03:13 47.9305 -41.0685 84° East  Level FlightAware Approximate
03:14 47.9452 -40.8547 84° East  Level FlightAware Approximate
03:15 47.9595 -40.6407 84° East  Level FlightAware Approximate
03:16 47.9734 -40.4267 84° East  Level FlightAware Approximate
03:17 47.9870 -40.2125 85° East  Level FlightAware Approximate
03:18 48.0005 -39.9980 69° East  Level FlightAware Approximate
03:19 48.0512 -39.7965 69° East  Level FlightAware Approximate
03:20 48.1016 -39.5945 69° East  Level FlightAware Approximate
03:21 48.1516 -39.3922 70° East  Level FlightAware Approximate
03:22 48.2012 -39.1895 70° East  Level FlightAware Approximate
03:23 48.2505 -38.9864 70° East  Level FlightAware Approximate
03:24 48.2994 -38.7829 70° East  Level FlightAware Approximate
03:25 48.3479 -38.5790 70° East  Level FlightAware Approximate
03:26 48.3961 -38.3747 70° East  Level FlightAware Approximate
03:27 48.4440 -38.1701 71° East  Level FlightAware Approximate
03:28 48.4915 -37.9650 71° East  Level FlightAware Approximate
03:29 48.5386 -37.7596 71° East  Level FlightAware Approximate
03:30 48.5853 -37.5538 71° East  Level FlightAware Approximate
03:31 48.6317 -37.3476 71° East  Level FlightAware Approximate
03:32 48.6777 -37.1410 71° East  Level FlightAware Approximate
03:33 48.7234 -36.9341 71° East  Level FlightAware Approximate
03:34 48.7686 -36.7268 72° East  Level FlightAware Approximate
03:35 48.8135 -36.5191 72° East  Level FlightAware Approximate
03:36 48.8580 -36.3110 72° East  Level FlightAware Approximate
03:37 48.9022 -36.1026 72° East  Level FlightAware Approximate
03:38 48.9459 -35.8938 72° East  Level FlightAware Approximate
03:39 48.9893 -35.6846 72° East  Level FlightAware Approximate
03:40 49.0323 -35.4751 73° East  Level FlightAware Approximate
03:41 49.0750 -35.2652 73° East  Level FlightAware Approximate
03:42 49.1172 -35.0550 73° East  Level FlightAware Approximate
03:43 49.1591 -34.8444 73° East  Level FlightAware Approximate
03:44 49.2006 -34.6334 73° East  Level FlightAware Approximate
03:45 49.2417 -34.4221 73° East  Level FlightAware Approximate
03:46 49.2824 -34.2104 73° East  Level FlightAware Approximate
03:47 49.3227 -33.9984 74° East  Level FlightAware Approximate
03:48 49.3627 -33.7861 74° East  Level FlightAware Approximate
03:49 49.4022 -33.5734 74° East  Level FlightAware Approximate
03:50 49.4414 -33.3603 74° East  Level FlightAware Approximate
03:51 49.4801 -33.1470 74° East  Level FlightAware Approximate
03:52 49.5185 -32.9333 74° East  Level FlightAware Approximate
03:53 49.5565 -32.7192 75° East  Level FlightAware Approximate
03:54 49.5941 -32.5048 75° East  Level FlightAware Approximate
03:55 49.6313 -32.2901 75° East  Level FlightAware Approximate
03:56 49.6681 -32.0751 75° East  Level FlightAware Approximate
03:57 49.7044 -31.8597 75° East  Level FlightAware Approximate
03:58 49.7404 -31.6440 75° East  Level FlightAware Approximate
03:59 49.7760 -31.4280 76° East  Level FlightAware Approximate
04:00 49.8112 -31.2117 76° East  Level FlightAware Approximate
04:01 49.8460 -30.9951 76° East  Level FlightAware Approximate
04:02 49.8804 -30.7782 76° East  Level FlightAware Approximate
04:03 49.9144 -30.5609 76° East  Level FlightAware Approximate
04:04 49.9479 -30.3434 76° East  Level FlightAware Approximate
04:05 49.9811 -30.1255 77° East  Level FlightAware Approximate
04:06 50.0135 -29.9073 77° East  Level FlightAware Approximate
04:07 50.0449 -29.6885 77° East  Level FlightAware Approximate
04:08 50.0760 -29.4695 77° East  Level FlightAware Approximate
04:09 50.1066 -29.2502 78° East  Level FlightAware Approximate
04:10 50.1368 -29.0306 78° East  Level FlightAware Approximate
04:11 50.1666 -28.8107 78° East  Level FlightAware Approximate
04:12 50.1960 -28.5905 78° East  Level FlightAware Approximate
04:13 50.2250 -28.3701 78° East  Level FlightAware Approximate
04:14 50.2536 -28.1494 78° East  Level FlightAware Approximate
04:15 50.2817 -27.9285 79° East  Level FlightAware Approximate
04:16 50.3094 -27.7073 79° East  Level FlightAware Approximate
04:17 50.3367 -27.4858 79° East  Level FlightAware Approximate
04:18 50.3636 -27.2641 79° East  Level FlightAware Approximate
04:19 50.3901 -27.0422 79° East  Level FlightAware Approximate
04:20 50.4161 -26.8200 79° East  Level FlightAware Approximate
04:21 50.4417 -26.5975 80° East  Level FlightAware Approximate
04:22 50.4669 -26.3748 80° East  Level FlightAware Approximate
04:23 50.4917 -26.1519 80° East  Level FlightAware Approximate
04:24 50.5160 -25.9287 80° East  Level FlightAware Approximate
04:25 50.5399 -25.7054 80° East  Level FlightAware Approximate
04:26 50.5634 -25.4818 81° East  Level FlightAware Approximate
04:27 50.5865 -25.2579 81° East  Level FlightAware Approximate
04:28 50.6091 -25.0339 81° East  Level FlightAware Approximate
04:29 50.6313 -24.8096 81° East  Level FlightAware Approximate
04:30 50.6530 -24.5851 81° East  Level FlightAware Approximate
04:31 50.6744 -24.3605 81° East  Level FlightAware Approximate
04:32 50.6953 -24.1356 82° East  Level FlightAware Approximate
04:33 50.7157 -23.9105 82° East  Level FlightAware Approximate
04:34 50.7358 -23.6852 82° East  Level FlightAware Approximate
04:35 50.7554 -23.4598 82° East  Level FlightAware Approximate
04:36 50.7745 -23.2341 82° East  Level FlightAware Approximate
04:37 50.7933 -23.0083 82° East  Level FlightAware Approximate
04:38 50.8115 -22.7823 83° East  Level FlightAware Approximate
04:39 50.8294 -22.5561 83° East  Level FlightAware Approximate
04:40 50.8468 -22.3297 83° East  Level FlightAware Approximate
04:41 50.8638 -22.1032 83° East  Level FlightAware Approximate
04:42 50.8803 -21.8765 83° East  Level FlightAware Approximate
04:43 50.8964 -21.6497 83° East  Level FlightAware Approximate
04:44 50.9121 -21.4227 84° East  Level FlightAware Approximate
04:45 50.9269 -21.2021 84° East  Level FlightAware Approximate
04:46 50.9412 -20.9814 84° East  Level FlightAware Approximate
04:47 50.9552 -20.7606 84° East  Level FlightAware Approximate
04:48 50.9687 -20.5396 84° East  Level FlightAware Approximate
04:49 50.9818 -20.3185 85° East  Level FlightAware Approximate
04:50 50.9945 -20.0973 85° East  Level FlightAware Approximate
04:51 50.9861 -19.8775 100° East  Level FlightAware Approximate
04:52 50.9611 -19.6590 100° East  Level FlightAware Approximate
04:53 50.9356 -19.4408 100° East  Level FlightAware Approximate
04:54 50.9097 -19.2228 101° East  Level FlightAware Approximate
04:55 50.8834 -19.0050 101° East  Level FlightAware Approximate
04:56 50.8567 -18.7875 101° East  Level FlightAware Approximate
04:57 50.8301 -18.5701 101° East  Level FlightAware Approximate
04:58 50.8033 -18.3529 101° East  Level FlightAware Approximate
04:59 50.7761 -18.1360 101° East  Level FlightAware Approximate
05:00 50.7484 -17.9193 101° East  Level FlightAware Approximate
05:01 50.7204 -17.7028 101° East  Level FlightAware Approximate
05:02 50.6920 -17.4866 102° East  Level FlightAware Approximate
05:03 50.6631 -17.2707 102° East  Level FlightAware Approximate
05:04 50.6339 -17.0551 102° East  Level FlightAware Approximate
05:05 50.6043 -16.8397 102° East  Level FlightAware Approximate
05:06 50.5742 -16.6246 102° East  Level FlightAware Approximate
05:07 50.5438 -16.4097 102° East  Level FlightAware Approximate
05:08 50.5130 -16.1952 103° East  Level FlightAware Approximate
05:09 50.4818 -15.9809 103° East  Level FlightAware Approximate
05:10 50.4502 -15.7669 103° East  Level FlightAware Approximate
05:11 50.4182 -15.5532 103° East  Level FlightAware Approximate
05:12 50.3858 -15.3398 103° East  Level FlightAware Approximate
05:13 50.3530 -15.1267 103° East  Level FlightAware Approximate
05:14 50.3196 -14.9139 104° East  Level FlightAware Approximate
05:15 50.2856 -14.7016 104° East  Level FlightAware Approximate
05:16 50.2511 -14.4896 104° East  Level FlightAware Approximate
05:17 50.2163 -14.2779 104° East  Level FlightAware Approximate
05:18 50.1810 -14.0665 105° East  Level FlightAware Approximate
05:19 50.1454 -13.8554 105° East  Level FlightAware Approximate
05:20 50.1094 -13.6446 105° East  Level FlightAware Approximate
05:21 50.0731 -13.4342 105° East  Level FlightAware Approximate
05:22 50.0363 -13.2241 105° East  Level FlightAware Approximate
05:23 49.9992 -13.0143 105° East  Level FlightAware Approximate
05:24 49.9617 -12.8048 105° East  Level FlightAware Approximate
05:25 49.9238 -12.5956 106° East  Level FlightAware Approximate
05:26 49.8855 -12.3868 106° East  Level FlightAware Approximate
05:27 49.8469 -12.1783 106° East  Level FlightAware Approximate
05:28 49.8078 -11.9702 106° East  Level FlightAware Approximate
05:29 49.7685 -11.7624 106° East  Level FlightAware Approximate
05:30 49.7287 -11.5549 106° East  Level FlightAware Approximate
05:31 49.6886 -11.3477 107° East  Level FlightAware Approximate
05:32 49.6481 -11.1409 107° East  Level FlightAware Approximate
05:33 49.6072 -10.9345 107° East  Level FlightAware Approximate
05:34 49.5660 -10.7284 107° East  Level FlightAware Approximate
05:35 49.5247 -10.5225 107° East  Level FlightAware Approximate
05:35 49.6450 -10.0030 107° East 518 596 35,000  Level FlightAware
05:35 49.6040 -9.8680 115° Southeast 518 596 35,000  Level FlightAware
05:36 49.5560 -9.7140 116° Southeast 518 596 35,000  Level FlightAware
05:37 49.5080 -9.5610 116° Southeast 518 596 35,000  Level FlightAware
05:38 49.4480 -9.3750 116° Southeast 521 600 35,000  Level FlightAware
05:38 49.4130 -9.2660 116° Southeast 521 600 35,000  Level FlightAware
05:39 49.3770 -9.1520 116° Southeast 521 600 35,000  Level FlightAware
05:40 49.3214 -8.9786 116° Southeast 500 575 35,000  Level FlightAware UK
05:40 49.3100 -8.9420 116° Southeast 519 597 35,000  Level FlightAware
05:41 49.2578 -8.7819 116° Southeast 500 575 35,000  Level FlightAware UK
05:41 49.2490 -8.7520 116° Southeast 514 592 35,000  Level FlightAware
05:42 49.2000 -8.6030 117° Southeast 512 589 35,000  Level FlightAware
05:42 49.1623 -8.4896 117° Southeast 500 575 35,000  Level FlightAware UK
05:42 49.1640 -8.4930 117° Southeast 511 588 35,000  Level FlightAware
05:43 49.1303 -8.3931 117° Southeast 498 573 35,000  Level FlightAware UK
05:43 49.1140 -8.3420 117° Southeast 508 585 35,000  Level FlightAware
05:44 49.0730 -8.2180 117° Southeast 506 582 35,000  Level FlightAware
05:44 49.0349 -8.1060 117° Southeast 498 573 35,000  Level FlightAware UK
05:44 49.0250 -8.0750 117° Southeast 504 580 35,000  Level FlightAware
05:44 49.0180 -8.0490 117° Southeast 503 579 35,000  Level FlightAware
05:45 49.0000 -7.9258 117° Southeast 496 571 35,000  Level FlightAware UK
05:46 49.0015 -7.8202 117° Southeast 494 568 35,000  Level FlightAware UK
05:46 48.9795 -7.6780 103° East 494 568 35,000  Level FlightAware UK
05:47 48.9900 -7.6950 103° East 499 574 35,000  Level FlightAware
05:47 48.9650 -7.6290 120° Southeast 499 574 35,000  Level FlightAware
05:48 48.9180 -7.4770 115° Southeast 500 575 35,000  Level FlightAware
05:48 48.8580 -7.2978 115° Southeast 494 568 35,000  Level FlightAware UK
05:48 48.8590 -7.3010 115° Southeast 502 578 35,000  Level FlightAware
05:49 48.8160 -7.1690 116° Southeast 502 578 35,000  Level FlightAware
05:50 48.7760 -7.0450 116° Southeast 499 574 35,000  Level FlightAware
05:50 48.7347 -6.9193 116° Southeast 498 573 35,000  Level FlightAware UK
05:50 48.7340 -6.9160 116° Southeast 502 578 35,000  Level FlightAware
05:51 48.6940 -6.7940 116° Southeast 500 575 35,000  Level FlightAware
05:52 48.6500 -6.6590 116° Southeast 500 575 35,000  Level FlightAware
05:52 48.6108 -6.5425 116° Southeast 494 568 35,000  Level FlightAware UK
05:52 48.6100 -6.5370 116° Southeast 500 575 35,000  Level FlightAware
05:53 48.5660 -6.4060 117° Southeast 500 575 35,000  Level FlightAware
05:54 48.5240 -6.2820 117° Southeast 501 577 35,000  Level FlightAware
05:54 48.5179 -6.2623 117° Southeast 494 568 35,000  Level FlightAware UK
05:54 48.4865 -6.1690 117° Southeast 498 573 35,000  Level FlightAware UK
05:54 48.4820 -6.1540 117° Southeast 501 577 35,000  Level FlightAware
05:55 48.4487 -6.0570 117° Southeast 496 571 35,000  Level FlightAware UK
05:55 48.4360 -6.0170 117° Southeast 501 577 35,000  Level FlightAware
05:56 48.3982 -5.9078 117° Southeast 498 573 35,000  Level FlightAware UK
05:56 48.3910 -5.8870 117° Southeast 500 575 35,000  Level FlightAware
05:56 48.3510 -5.7690 117° Southeast 499 574 35,000  Level FlightAware
05:57 48.3060 -5.6370 117° Southeast 498 573 35,000  Level FlightAware
05:58 48.2650 -5.5170 117° Southeast 496 571 35,000  Level FlightAware
05:58 48.2273 -5.4085 117° Southeast 500 575 35,000  Level FlightAware UK
05:58 48.2250 -5.4010 117° Southeast 495 570 35,000  Level FlightAware
05:59 48.1780 -5.2680 118° Southeast 494 568 35,000  Level FlightAware
06:00 48.1400 -5.1590 118° Southeast 493 567 35,000  Level FlightAware
06:01 48.0900 -5.0160 118° Southeast 495 570 35,000  Level FlightAware
06:01 48.0470 -4.8920 117° Southeast 496 571 35,000  Level FlightAware
06:02 48.0050 -4.7710 117° Southeast 496 571 35,000  Level FlightAware
06:03 47.9590 -4.6440 118° Southeast 496 571 35,000  Level FlightAware
06:03 47.9130 -4.5150 118° Southeast 496 571 35,000  Level FlightAware
06:04 47.8640 -4.3790 118° Southeast 495 570 35,000  Level FlightAware
06:05 47.8220 -4.2620 118° Southeast 495 570 35,000  Level FlightAware
06:05 47.7740 -4.1270 118° Southeast 495 570 35,000  Level FlightAware
06:06 47.7320 -4.0140 119° Southeast 495 570 35,000  Level FlightAware
06:07 47.6850 -3.8880 119° Southeast 496 571 35,000  Level FlightAware
06:08 47.6390 -3.7600 118° Southeast 496 571 35,000  Level FlightAware
06:08 47.5890 -3.6250 119° Southeast 497 572 35,000  Level FlightAware
06:09 47.5450 -3.5060 119° Southeast 497 572 35,000  Level FlightAware
06:10 47.5000 -3.3870 119° Southeast 498 573 35,000  Level FlightAware
06:10 47.4610 -3.2800 118° Southeast 498 573 35,000  Level FlightAware
06:11 47.4010 -3.1230 119° Southeast 498 573 35,000  Level FlightAware
06:12 47.3420 -2.9660 119° Southeast 498 573 35,000  Level FlightAware
06:13 47.2940 -2.8410 119° Southeast 499 574 35,000  Level FlightAware
06:13 47.2470 -2.7170 119° Southeast 499 574 35,000  Level FlightAware
06:14 47.2060 -2.6100 119° Southeast 500 575 35,000  Level FlightAware
06:15 47.1280 -2.4100 120° Southeast 501 577 35,000  Level FlightAware
06:17 47.0030 -2.0960 120° Southeast 501 577 35,000  Level FlightAware
06:18 46.9420 -1.9440 120° Southeast 500 575 35,000  Level FlightAware
06:18 46.8940 -1.8250 121° Southeast 500 575 35,000  Level FlightAware
06:19 46.8430 -1.7000 121° Southeast 501 577 35,000  Level FlightAware
06:20 46.7940 -1.5810 121° Southeast 500 575 35,000  Level FlightAware
06:20 46.7510 -1.4770 121° Southeast 500 575 35,000  Level FlightAware
06:21 46.7030 -1.3610 121° Southeast 501 577 35,000  Level FlightAware
06:22 46.6590 -1.2440 119° Southeast 500 575 35,000  Level FlightAware
06:22 46.6210 -1.1250 115° Southeast 500 575 35,000  Level FlightAware
06:23 46.5870 -1.0000 112° Southeast 500 575 35,000  Level FlightAware
06:24 46.5540 -0.8710 110° East 500 575 35,000  Level FlightAware
06:24 46.5220 -0.7480 111° Southeast 500 575 35,000  Level FlightAware
06:25 46.4760 -0.5650 110° East 500 575 35,000  Level FlightAware
06:26 46.4440 -0.4400 110° East 500 575 35,000  Level FlightAware
06:27 46.4080 -0.3020 111° Southeast 499 574 35,000  Level FlightAware
06:27 46.3760 -0.1770 110° East 499 574 35,000  Level FlightAware
06:28 46.3450 -0.0620 111° Southeast 500 575 35,000  Level FlightAware
06:29 46.3110 0.0660 111° Southeast 501 577 35,000  Level FlightAware
06:29 46.2770 0.1970 111° Southeast 500 575 35,000  Level FlightAware
06:31 46.2270 0.3840 111° Southeast 500 575 35,000  Level FlightAware
06:31 46.1860 0.5360 111° Southeast 499 574 35,000  Level FlightAware
06:32 46.1490 0.6650 112° Southeast 498 573 35,000  Level FlightAware
06:33 46.1210 0.7670 112° Southeast 496 571 35,000  Level FlightAware
06:33 46.0800 0.9130 112° Southeast 495 570 35,000  Level FlightAware
06:34 46.0460 1.0350 112° Southeast 494 568 35,000  Level FlightAware
06:35 46.0060 1.1750 112° Southeast 494 568 35,000  Level FlightAware
06:35 45.9720 1.2960 112° Southeast 492 566 35,000  Level FlightAware
06:36 45.9350 1.4300 112° Southeast 492 566 35,000  Level FlightAware
06:37 45.8960 1.5720 111° Southeast 491 565 35,000  Level FlightAware
06:38 45.8620 1.6930 112° Southeast 492 566 35,000  Level FlightAware
06:38 45.8290 1.8070 113° Southeast 491 565 35,000  Level FlightAware
06:39 45.7890 1.9480 112° Southeast 490 564 35,000  Level FlightAware
06:40 45.7570 2.0620 112° Southeast 488 562 35,000  Level FlightAware
06:40 45.7220 2.1840 112° Southeast 486 559 35,000  Level FlightAware
06:41 45.6830 2.3170 113° Southeast 486 559 35,000  Level FlightAware
06:42 45.6480 2.4390 112° Southeast 485 558 35,000  Level FlightAware
06:43 45.6090 2.5740 112° Southeast 484 557 35,000  Level FlightAware
06:43 45.5700 2.7070 113° Southeast 484 557 35,000  Level FlightAware
06:44 45.5260 2.8570 113° Southeast 484 557 35,000  Level FlightAware
06:46 45.4370 3.1550 113° Southeast 482 555 35,000  Level FlightAware
06:47 45.3850 3.3270 113° Southeast 483 556 35,000  Level FlightAware
06:48 45.3290 3.5120 113° Southeast 485 558 35,000  Level FlightAware
06:49 45.2940 3.6310 113° Southeast 485 558 35,000  Level FlightAware
06:49 45.2640 3.7310 113° Southeast 486 559 35,000  Level FlightAware
06:50 45.2300 3.8760 108° East 485 558 35,000  Level FlightAware
06:51 45.1920 3.9810 117° Southeast 487 560 35,000  Level FlightAware
06:51 45.1360 4.1010 123° Southeast 488 562 35,000  Level FlightAware
06:52 45.0860 4.2070 124° Southeast 488 562 35,000  Level FlightAware
06:53 45.0300 4.3240 124° Southeast 488 562 35,000  Level FlightAware
06:53 44.9770 4.4350 124° Southeast 487 560 35,000  Level FlightAware
06:54 44.9330 4.5300 123° Southeast 487 560 35,000  Level FlightAware
06:55 44.8810 4.6370 124° Southeast 486 559 35,000  Level FlightAware
06:55 44.8250 4.7550 124° Southeast 485 558 35,000  Level FlightAware
06:56 44.7840 4.8390 124° Southeast 485 558 35,000  Level FlightAware
06:57 44.7320 4.9460 124° Southeast 486 559 35,000  Level FlightAware
06:57 44.6790 5.0480 126° Southeast 485 558 35,000  Level FlightAware
06:58 44.6060 5.1510 135° Southeast 487 560 35,000  Level FlightAware
06:59 44.5430 5.2410 134° Southeast 487 560 35,000  Level FlightAware
06:59 44.4740 5.3390 135° Southeast 487 560 35,000  Level FlightAware
07:00 44.4100 5.4290 135° Southeast 487 560 35,000  Level FlightAware
07:01 44.3400 5.5280 135° Southeast 487 560 35,000  Level FlightAware
07:02 44.2760 5.6170 135° Southeast 488 562 35,000  Level FlightAware
07:04 44.1884 5.9842 108° East  Level Estimated
07:05 44.1438 6.1690 109° East  Level Estimated
07:06 44.0989 6.3535 109° East  Level Estimated
07:07 44.0537 6.5377 109° East  Level Estimated
07:08 44.0082 6.7216 109° East  Level Estimated
07:09 43.9624 6.9052 109° East  Level Estimated
07:10 43.9163 7.0885 109° East  Level Estimated
07:10 43.5660 6.6880 109° East 497 572 35,000  Level FlightAware
07:10 43.5250 6.7390 138° Southeast 497 572 35,000  Level FlightAware
07:11 43.4360 6.8490 138° Southeast 497 572 35,000  Level FlightAware
07:12 43.3810 6.9170 138° Southeast 497 572 35,000  Level FlightAware
07:12 43.3150 7.0560 123° Southeast 502 578 35,000  Level FlightAware
07:13 43.2830 7.1840 109° East 502 578 35,000  Level FlightAware
07:14 43.2580 7.2840 109° East 502 578 35,000  Level FlightAware
07:14 43.2280 7.4020 109° East 502 578 35,000  Level FlightAware
07:15 43.1480 7.6000 119° Southeast 497 572 35,000 120 Level FlightAware
07:16 43.1120 7.7190 112° Southeast 496 571 35,200 780 Climbing FlightAware
07:17 43.0610 7.8900 112° Southeast 497 572 36,400 960 Climbing FlightAware
07:18 43.0100 8.0630 112° Southeast 503 579 37,000 360 Climbing FlightAware
07:19 42.9600 8.2250 113° Southeast 503 579 37,000  Level FlightAware
07:19 42.9260 8.3420 112° Southeast 503 579 37,000  Level FlightAware
07:20 42.8880 8.4650 113° Southeast 501 577 37,000  Level FlightAware
07:21 42.8510 8.5870 112° Southeast 500 575 37,000  Level FlightAware
07:21 42.8120 8.7140 113° Southeast 499 574 37,000  Level FlightAware
07:22 42.7890 8.8070 109° East 500 575 37,000  Level FlightAware
07:23 42.7620 8.9310 106° East 500 575 37,000  Level FlightAware
07:23 42.7310 9.0720 107° East 501 577 37,000  Level FlightAware
07:24 42.7050 9.1960 106° East 501 577 37,000  Level FlightAware
07:25 42.6820 9.3020 106° East 500 575 37,000  Level FlightAware
07:25 42.6420 9.4350 112° Southeast 500 575 37,000  Level FlightAware
07:26 42.6030 9.5630 112° Southeast 501 577 37,000  Level FlightAware
07:27 42.5640 9.6880 113° Southeast 500 575 37,000  Level FlightAware
07:28 42.5290 9.8030 112° Southeast 499 574 37,000  Level FlightAware
07:28 42.4890 9.9260 114° Southeast 500 575 37,000  Level FlightAware
07:29 42.4310 10.0430 124° Southeast 498 573 37,000  Level FlightAware
07:30 42.3830 10.1420 123° Southeast 498 573 37,000  Level FlightAware
07:30 42.3370 10.2390 123° Southeast 499 574 37,000  Level FlightAware
07:31 42.2860 10.3460 123° Southeast 499 574 37,000  Level FlightAware
07:32 42.2290 10.4600 124° Southeast 500 575 37,000  Level FlightAware
07:32 42.1790 10.5570 125° Southeast 501 577 37,000  Level FlightAware
07:33 42.1180 10.6760 125° Southeast 503 579 37,000  Level FlightAware
07:34 42.0650 10.7790 125° Southeast 504 580 37,000  Level FlightAware
07:34 42.0080 10.8900 125° Southeast 505 581 37,000  Level FlightAware
07:35 41.9540 10.9960 124° Southeast 506 582 37,000  Level FlightAware
07:36 41.9010 11.1000 124° Southeast 505 581 37,000  Level FlightAware
07:36 41.8480 11.2030 125° Southeast 506 582 37,000  Level FlightAware
07:37 41.7940 11.3060 125° Southeast 507 583 37,000  Level FlightAware
07:38 41.7400 11.4090 125° Southeast 509 586 37,000  Level FlightAware
07:38 41.6910 11.5020 125° Southeast 508 585 37,000  Level FlightAware
07:39 41.6330 11.6130 125° Southeast 508 585 37,000  Level FlightAware
07:40 41.5790 11.7160 125° Southeast 508 585 37,000  Level FlightAware
07:41 41.5180 11.8340 125° Southeast 508 585 37,000  Level FlightAware
07:41 41.4640 11.9330 126° Southeast 506 582 37,000  Level FlightAware
07:42 41.4040 12.0450 126° Southeast 506 582 37,000  Level FlightAware
07:43 41.3520 12.1440 125° Southeast 506 582 37,000  Level FlightAware
07:43 41.3060 12.2410 122° Southeast 507 583 37,000  Level FlightAware
07:44 41.2640 12.3660 114° Southeast 507 583 37,000  Level FlightAware
07:45 41.2270 12.4680 116° Southeast 508 585 37,000  Level FlightAware
07:46 41.1430 12.6950 116° Southeast 508 585 37,000  Level FlightAware
07:47 41.0870 12.8790 112° Southeast 513 590 37,000  Level FlightAware
07:48 41.0170 13.0850 114° Southeast 515 593 37,000  Level FlightAware
07:49 40.9790 13.1950 115° Southeast 515 593 37,000  Level FlightAware
07:49 40.9380 13.3150 114° Southeast 515 593 37,000  Level FlightAware
07:50 40.9000 13.4270 114° Southeast 515 593 37,000  Level FlightAware
07:51 40.8600 13.5450 114° Southeast 517 595 37,000  Level FlightAware
07:51 40.8240 13.6480 115° Southeast 519 597 37,000  Level FlightAware
07:52 40.7800 13.7720 115° Southeast 522 601 37,000  Level FlightAware
07:53 40.7390 13.8910 114° Southeast 524 603 37,000  Level FlightAware
07:53 40.6970 14.0130 114° Southeast 527 606 37,000  Level FlightAware
07:54 40.6510 14.1420 115° Southeast 529 609 37,000  Level FlightAware
07:55 40.6230 14.2660 107° East 531 611 37,000  Level FlightAware
07:56 40.5960 14.4030 105° East 532 612 37,000  Level FlightAware
07:56 40.5720 14.5250 104° East 532 612 37,000  Level FlightAware
07:57 40.5430 14.6620 106° East 531 611 37,000  Level FlightAware
07:58 40.5180 14.7900 104° East 530 610 37,000  Level FlightAware
07:58 40.4870 14.9260 107° East 528 608 37,000  Level FlightAware
07:59 40.4530 15.0460 110° East 527 606 37,000  Level FlightAware
08:00 40.4160 15.1640 112° Southeast 528 608 37,000  Level FlightAware
08:00 40.3740 15.2900 114° Southeast 527 606 37,000  Level FlightAware
08:01 40.3340 15.4170 112° Southeast 527 606 37,000  Level FlightAware
08:02 40.2920 15.5460 113° Southeast 528 608 37,000  Level FlightAware
08:03 40.2500 15.6720 114° Southeast 529 609 37,000  Level FlightAware
08:03 40.2200 15.7660 113° Southeast 529 609 37,000  Level FlightAware
08:04 40.1770 15.8960 113° Southeast 530 610 37,000  Level FlightAware
08:05 40.1380 16.0130 114° Southeast 530 610 37,000  Level FlightAware
08:05 40.1010 16.1180 115° Southeast 529 609 37,000  Level FlightAware
08:06 40.0590 16.2370 115° Southeast 531 611 37,000  Level FlightAware
08:06 40.0220 16.3390 115° Southeast 530 610 37,000  Level FlightAware
08:07 39.9710 16.4800 115° Southeast 532 612 37,000  Level FlightAware
08:08 39.9200 16.6050 118° Southeast 532 612 37,000  Level FlightAware
08:09 39.8720 16.7170 119° Southeast 532 612 37,000  Level FlightAware
08:09 39.8210 16.8330 120° Southeast 530 610 37,000  Level FlightAware
08:10 39.7750 16.9380 120° Southeast 531 611 37,000  Level FlightAware
08:12 39.6580 17.2070 119° Southeast 531 611 37,000  Level FlightAware
08:13 39.5680 17.4050 120° Southeast 531 611 37,000  Level FlightAware
08:14 39.5150 17.5230 120° Southeast 530 610 37,000  Level FlightAware
08:14 39.4670 17.6300 120° Southeast 528 608 37,000  Level FlightAware
08:15 39.4180 17.7390 120° Southeast 528 608 37,000  Level FlightAware
08:16 39.3630 17.8590 121° Southeast 530 610 37,000  Level FlightAware
08:16 39.3190 17.9570 120° Southeast 532 612 37,000  Level FlightAware
08:17 39.2570 18.0920 121° Southeast 534 615 37,000  Level FlightAware
08:18 39.2110 18.1930 120° Southeast 536 617 37,000  Level FlightAware
08:18 39.1560 18.3120 121° Southeast 537 618 37,000  Level FlightAware
08:19 39.1050 18.4220 121° Southeast 538 619 37,000  Level FlightAware
08:20 39.0310 18.5820 121° Southeast 539 620 37,000  Level FlightAware
08:21 38.9820 18.6890 120° Southeast 539 620 37,000  Level FlightAware
08:21 38.9370 18.7860 121° Southeast 539 620 37,000  Level FlightAware
08:22 38.8740 18.9200 121° Southeast 537 618 37,000  Level FlightAware
08:23 38.8230 19.0280 121° Southeast 536 617 37,000  Level FlightAware
08:24 38.7690 19.1490 120° Southeast 538 619 37,000  Level FlightAware
08:24 38.7280 19.2690 114° Southeast 541 623 37,000  Level FlightAware
08:25 38.6900 19.3880 112° Southeast 542 624 37,000  Level FlightAware
08:26 38.6510 19.5060 113° Southeast 541 623 37,000  Level FlightAware
08:26 38.6050 19.6510 112° Southeast 541 623 37,000  Level FlightAware
08:27 38.5600 19.7860 113° Southeast 541 623 37,000  Level FlightAware
08:28 38.5230 19.9010 112° Southeast 540 621 37,000  Level FlightAware
08:28 38.4820 20.0240 113° Southeast 539 620 37,000  Level FlightAware
08:29 38.4440 20.1380 113° Southeast 539 620 37,000  Level FlightAware
08:32 38.3016 20.5223 115° Southeast  Level FlightAware Approximate
08:32 38.3080 20.5640 115° Southeast 540 621 37,000  Level FlightAware
08:32 38.2800 20.6520 112° Southeast 540 621 37,000  Level FlightAware
08:33 38.1900 20.8890 116° Southeast 528 608 37,000  Level FlightAware
08:34 38.1320 21.0180 120° Southeast 525 604 37,000  Level FlightAware
08:35 38.0740 21.1340 122° Southeast 519 597 37,000  Level FlightAware
08:36 38.0180 21.2450 123° Southeast 522 601 37,000  Level FlightAware
08:36 37.9680 21.3430 123° Southeast 522 601 37,000  Level FlightAware
08:37 37.9060 21.4710 122° Southeast 522 601 37,000  Level FlightAware
08:38 37.8670 21.5510 122° Southeast 522 601 37,000  Level FlightAware
08:39 37.8130 21.6590 122° Southeast 522 601 37,000  Level FlightAware
08:39 37.7740 21.7380 122° Southeast 522 601 37,000  Level FlightAware
08:40 37.6950 21.9240 118° Southeast 522 601 37,000  Level FlightAware
08:41 37.6470 22.0360 118° Southeast 521 600 37,000  Level FlightAware
08:41 37.6060 22.1320 118° Southeast 521 600 37,000  Level FlightAware
08:42 37.5590 22.2440 118° Southeast 521 600 37,000  Level FlightAware
08:43 37.5140 22.3950 111° Southeast 524 603 37,000  Level FlightAware
08:43 37.4780 22.4990 114° Southeast 524 603 37,000  Level FlightAware
08:44 37.4390 22.6110 114° Southeast 523 602 37,000  Level FlightAware
08:45 37.4010 22.7220 113° Southeast 523 602 37,000  Level FlightAware
08:45 37.3640 22.8280 114° Southeast 523 602 37,000  Level FlightAware
08:46 37.3220 22.9540 113° Southeast 524 603 37,000  Level FlightAware
08:47 37.2840 23.0630 114° Southeast 525 604 37,000  Level FlightAware
08:47 37.2420 23.1800 114° Southeast 526 605 37,000  Level FlightAware
08:48 37.1990 23.3060 113° Southeast 527 606 37,000  Level FlightAware
08:49 37.1590 23.4210 114° Southeast 526 605 37,000  Level FlightAware
08:50 37.1190 23.5320 114° Southeast 526 605 37,000  Level FlightAware
08:50 37.0840 23.6320 114° Southeast 526 605 37,000  Level FlightAware
08:52 36.9830 23.9170 114° Southeast 530 610 37,000  Level FlightAware
08:53 36.9190 24.0930 114° Southeast 530 610 37,000  Level FlightAware
08:54 36.8770 24.2100 114° Southeast 529 609 37,000  Level FlightAware
08:54 36.8370 24.3220 114° Southeast 527 606 37,000  Level FlightAware
08:55 36.8010 24.4210 114° Southeast 524 603 37,000  Level FlightAware
08:56 36.7520 24.5530 115° Southeast 523 602 37,000  Level FlightAware
08:56 36.7070 24.6790 114° Southeast 521 600 37,000  Level FlightAware
08:57 36.6660 24.7900 115° Southeast 519 597 37,000  Level FlightAware
08:58 36.6260 24.8990 115° Southeast 519 597 37,000  Level FlightAware
08:58 36.5910 24.9940 115° Southeast 519 597 37,000  Level FlightAware
08:59 36.5440 25.1180 115° Southeast 518 596 37,000  Level FlightAware
09:01 36.4520 25.3730 114° Southeast 519 597 37,000  Level FlightAware
09:02 36.4090 25.4810 116° Southeast 521 600 37,000  Level FlightAware
09:02 36.3450 25.6490 115° Southeast 523 602 37,000  Level FlightAware
09:03 36.2990 25.7690 115° Southeast 524 603 37,000  Level FlightAware
09:04 36.2590 25.8780 114° Southeast 523 602 37,000  Level FlightAware
09:05 36.2140 25.9940 116° Southeast 523 602 37,000  Level FlightAware
09:05 36.1720 26.1050 115° Southeast 523 602 37,000  Level FlightAware
09:06 36.1280 26.2190 116° Southeast 524 603 37,000  Level FlightAware
09:07 36.0870 26.3260 115° Southeast 519 597 37,000  Level FlightAware
09:07 36.0390 26.4490 116° Southeast 518 596 37,000  Level FlightAware
09:08 35.9970 26.5560 116° Southeast 518 596 37,000  Level FlightAware
09:09 35.9550 26.6650 115° Southeast 519 597 37,000  Level FlightAware
09:09 35.9220 26.7470 116° Southeast 519 597 37,000  Level FlightAware
09:10 35.8560 26.9160 116° Southeast 519 597 37,000  Level FlightAware
09:11 35.8070 27.0440 115° Southeast 519 597 37,000  Level FlightAware
09:12 35.7640 27.1580 115° Southeast 519 597 37,000  Level FlightAware
09:13 35.7320 27.2420 115° Southeast 519 597 37,000  Level FlightAware
09:13 35.6900 27.3540 115° Southeast 519 597 37,000  Level FlightAware
09:14 35.6480 27.4630 115° Southeast 519 597 37,000  Level FlightAware
09:15 35.5830 27.6360 115° Southeast 519 597 37,000  Level FlightAware
09:16 35.5460 27.7320 115° Southeast 519 597 37,000  Level FlightAware
09:17 35.4150 28.0220 119° Southeast 521 600 37,000  Level FlightAware
09:18 35.3840 28.1040 115° Southeast 521 600 37,000  Level FlightAware
09:19 35.3410 28.2150 115° Southeast 521 600 37,000  Level FlightAware
09:19 35.2720 28.3680 119° Southeast 515 593 37,000  Level FlightAware
09:20 35.2350 28.4600 116° Southeast 514 592 37,000  Level FlightAware
09:21 35.1940 28.5680 115° Southeast 514 592 37,000  Level FlightAware
09:22 35.1310 28.7070 119° Southeast 510 587 37,000  Level FlightAware
09:22 35.0830 28.8230 117° Southeast 506 582 37,000  Level FlightAware
09:23 35.0510 28.9040 116° Southeast 506 582 37,000  Level FlightAware
09:24 34.9960 29.0290 118° Southeast 504 580 37,000  Level FlightAware
09:24 34.9620 29.1140 116° Southeast 504 580 37,000  Level FlightAware
09:25 34.9190 29.2210 116° Southeast 504 580 37,000  Level FlightAware
09:26 34.8660 29.3390 119° Southeast 509 586 37,000  Level FlightAware
09:27 34.8070 29.4800 117° Southeast 509 586 37,000  Level FlightAware
09:27 34.7630 29.5820 118° Southeast 508 585 37,000  Level FlightAware
09:28 34.7170 29.6860 118° Southeast 504 580 37,000  Level FlightAware
09:29 34.6710 29.7820 120° Southeast 507 583 37,000  Level FlightAware
09:30 34.6160 29.9000 120° Southeast 504 580 37,000  Level FlightAware
09:30 34.5530 30.0310 120° Southeast 502 578 37,000  Level FlightAware
09:31 34.5120 30.1180 120° Southeast 502 578 37,000  Level FlightAware
09:32 34.4630 30.2210 120° Southeast 504 580 37,000  Level FlightAware
09:32 34.4080 30.3370 120° Southeast 504 580 37,000  Level FlightAware
09:33 34.3660 30.4260 120° Southeast 505 581 37,000  Level FlightAware
09:34 34.3190 30.5240 120° Southeast 504 580 37,000  Level FlightAware
09:34 34.2720 30.6220 120° Southeast 508 585 37,000  Level FlightAware
09:35 34.2170 30.7350 120° Southeast 508 585 37,000  Level FlightAware
09:36 34.1770 30.8190 120° Southeast 508 585 37,000  Level FlightAware
09:36 34.1200 30.9360 120° Southeast 507 583 37,000  Level FlightAware
09:37 34.0670 31.0460 120° Southeast 507 583 37,000  Level FlightAware
09:38 34.0020 31.1800 120° Southeast 507 583 37,000  Level FlightAware
09:39 33.9530 31.2780 121° Southeast 508 585 37,000  Level FlightAware
09:39 33.9180 31.3510 120° Southeast 509 586 37,000  Level FlightAware
09:40 33.8700 31.4490 121° Southeast 509 586 37,000  Level FlightAware
09:41 33.8160 31.5580 121° Southeast 510 587 37,000  Level FlightAware
09:41 33.7660 31.6610 120° Southeast 511 588 37,000  Level FlightAware
09:42 33.7110 31.7710 121° Southeast 511 588 37,000  Level FlightAware
09:43 33.6640 31.8660 121° Southeast 511 588 37,000  Level FlightAware
09:44 33.6070 31.9780 121° Southeast 511 588 37,000  Level FlightAware
09:44 33.5650 32.0630 121° Southeast 511 588 37,000  Level FlightAware
09:45 33.4890 32.2130 121° Southeast 510 587 37,000  Level FlightAware
09:46 33.4250 32.3410 121° Southeast 506 582 37,000  Level FlightAware
09:47 33.3710 32.4500 121° Southeast 506 582 37,000  Level FlightAware
09:47 33.3320 32.5270 121° Southeast 506 582 37,000  Level FlightAware
09:48 33.2620 32.6640 121° Southeast 506 582 37,000  Level FlightAware
09:49 33.2080 32.7680 122° Southeast 508 585 37,000 -720 Level FlightAware
09:50 33.1630 32.8590 121° Southeast 506 582 36,100 -1,680 Descending FlightAware
09:50 33.1000 32.9800 122° Southeast 520 598 34,600 -1,800 Descending FlightAware
09:51 33.0480 33.0810 122° Southeast 525 604 33,500 -1,440 Descending FlightAware
09:52 33.0050 33.1650 121° Southeast 526 605 32,700 -2,220 Descending FlightAware
09:53 32.9340 33.3030 121° Southeast 519 597 30,200 -3,540 Descending FlightAware
09:53 32.8790 33.4090 122° Southeast 526 605 27,200 -3,840 Descending FlightAware
09:54 32.8330 33.4960 122° Southeast 509 586 25,300 -3,120 Descending FlightAware
09:55 32.7860 33.5870 122° Southeast 492 566 23,200 -2,700 Descending FlightAware
09:55 32.7350 33.6840 122° Southeast 463 533 21,600 -2,520 Descending FlightAware
09:56 32.6890 33.7740 121° Southeast 450 518 19,700 -3,360 Descending FlightAware
09:57 32.6380 33.8690 122° Southeast 455 524 16,800 -3,000 Descending FlightAware
09:57 32.5960 33.9510 121° Southeast 421 484 15,400 -2,280 Descending FlightAware
09:58 32.5610 34.0280 118° Southeast 386 444 13,800 -2,100 Descending FlightAware
09:59 32.5550 34.1080 95° East 349 402 12,700 -1,680 Descending FlightAware
09:59 32.5510 34.1740 94° East 326 375 11,700 -1,920 Descending FlightAware
10:00 32.5470 34.2540 93° East 313 360 10,100 -2,220 Descending FlightAware
10:01 32.5220 34.3090 118° Southeast 303 349 8,600 -1,440 Descending FlightAware
10:01 32.4980 34.3320 141° Southeast 303 349 8,600  Level FlightAware
10:01 32.4870 34.3420 143° Southeast 303 349 8,600  Level FlightAware
10:02 32.4410 34.3850 142° Southeast 303 349 8,600  Level FlightAware
10:03 32.4170 34.4060 144° Southeast 303 349 8,600 -1,440 Level FlightAware
10:04 32.2800 34.4110 178° South 5,600 -1,800 Descending FlightAware
10:04 32.2700 34.4210 140° Southeast 277 319 5,400 -300 Descending FlightAware
10:05 32.2470 34.4440 140° Southeast 277 319 5,400 -120 Level FlightAware
10:06 32.2070 34.4970 132° Southeast 278 320 5,300 -120 Descending FlightAware
10:06 32.1860 34.5450 117° Southeast 278 320 5,300  Level FlightAware
10:06 32.1810 34.5560 118° Southeast 278 320 5,300  Level FlightAware
10:07 32.1620 34.5930 121° Southeast 278 320 5,300  Level FlightAware
10:07 32.1390 34.6350 123° Southeast 278 320 5,300  Level FlightAware
10:08 32.1130 34.6810 124° Southeast 258 297 5,300  Level FlightAware
10:08 32.1060 34.6940 122° Southeast 258 297 5,300 -180 Level FlightAware
10:09 32.0910 34.7210 123° Southeast 256 295 5,200  Descending FlightAware
10:09 32.0780 34.7450 123° Southeast 249 287 5,300 120 Climbing FlightAware
10:09 32.0620 34.7720 125° Southeast 234 269 5,300 -240 Level FlightAware
10:10 32.0380 34.8010 134° Southeast 227 261 5,100 -480 Descending FlightAware
10:10 32.0300 34.8100 136° Southeast 226 260 5,000 -480 Descending FlightAware
10:10 32.0080 34.8340 137° Southeast 211 243 4,800 -840 Descending FlightAware
10:12 31.9760 34.9210 125° Southeast 200 230 3,200 -1,140 Descending FlightAware
10:13 32.0000 34.8667 125° Southeast  Level FlightAware Approximate
10:13 31.9850 34.9480 69° East 187 215 2,400  Level FlightAware
10:13 31.9950 34.9720 64° Northeast 176 203 2,300 -240 Descending FlightAware
10:16 32.0095 34.8769 280° West  Level Estimated
10:17 32.0095 34.8769 270° West  Level Estimated
10:18 32.0095 34.8769 270° West  Level Estimated
10:19 32.0095 34.8769 270° West  Level Estimated
10:20 32.0095 34.8769 270° West  Level Estimated
10:21 32.0095 34.8769 270° West  Level Estimated
10:22 32.0095 34.8769 270° West  Level Estimated
10:23 32.0095 34.8769 270° West  Level Estimated
10:24 32.0095 34.8769 270° West  Level Estimated
10:25 32.0095 34.8769 270° West  Level Estimated
10:26 32.0095 34.8769 270° West  Level Estimated
10:27 32.0095 34.8769 270° West  Level Estimated
10:28 32.0095 34.8769 270° West  Level Estimated
10:29 32.0095 34.8769 270° West  Level Estimated
10:30 32.0095 34.8769 270° West  Level Estimated
10:31 32.0095 34.8769 270° West  Level Estimated
10:32 32.0095 34.8769 270° West  Level Estimated
10:33 32.0095 34.8769 270° West  Level Estimated